{"data":{"norad_id":59736,"intl_designator":"2024-090G","name":"STARLINK-31707","alt_names":[],"object_type":"PAYLOAD","status":"ACTIVE","operator":null,"country":"US","launch_date":"2024-05-13","launch_site_code":"AFETR","launch_vehicle":null,"mission":null,"orbit_class":"UNKNOWN","rcs_meters":null,"size_class":null,"mass_kg":null,"dimensions":null,"purposes":["comms"],"wikipedia_slug":null,"has_3d_model":false,"image_url":null,"decayed_at":null,"tle_current":{"epoch":"2026-05-25T05:01:29.923104Z","epoch_age_seconds":50900,"freshness":"FRESH","line1":"1 59736U 24090G   26145.20937411  .00000707  00000+0  35202-4 0  9999","line2":"2 59736  43.0018 111.2855 0001054 273.8660  86.2071 15.27577531115142","mean_motion":15.27577531,"eccentricity":0.0001054,"inclination_deg":43.0018,"raan_deg":111.2855,"arg_perigee_deg":273.866,"mean_anomaly_deg":86.2071,"bstar":3.5202e-5,"rev_number":11514,"period_min":94.266901075544,"perigee_km":482.33331933008,"apogee_km":483.77965891758,"semimajor_km":6861.1934891238,"source":"CELESTRAK","updated_at":"2026-05-25T13:38:19.051487Z"}}}